ARSAT 2

Last updated on Sat Sep 12 2026 00:03:02 GMT+0000 (Coordinated Universal Time)

1 40941U 15054B 26254.56540808 .00000000 00000+0 00000+0 0 9996 2 40941 0.0200 129.8181 0001808 28.6068 314.6977 1.00267915 40179
UTC large
Height (km)
Speed (km/s)
/
Latitude / Longitude
Inclination (degrees)
Orbital Period (minutes)
Azimuth
Elevation
Range (km)
Doppler Factor

Next 0 passes for location: London (51.5072 / 0.1276)

No passes found over London.
ARSAT 2